timestamp,surface_pressure_avg,surface_temp_avg,battery_voltage,lat,long
2020-03-31 00:09:01+00:00,269.3148,0.6,12.89,47.84626,-54.09684
2020-03-31 00:19:01+00:00,275.4781,0.6,12.65,47.84626,-54.09684
2020-03-31 00:29:01+00:00,274.9764,0.6,12.65,47.84626,-54.09684
2020-03-31 00:39:01+00:00,275.2664,0.6,12.65,47.84626,-54.09684
2020-03-31 00:49:01+00:00,278.4347,0.6,12.65,47.84626,-54.09684
2020-03-31 00:59:01+00:00,283.0864,0.6,12.65,47.84626,-54.09684
2020-03-31 01:09:01+00:00,284.6847,0.6,12.65,47.84626,-54.09684
2020-03-31 01:19:01+00:00,287.933,0.6,12.65,47.84626,-54.09684
2020-03-31 01:29:01+00:00,291.7164,0.6,12.65,47.84626,-54.09684
2020-03-31 01:39:01+00:00,300.1146,0.6,12.65,47.84626,-54.09684
2020-03-31 01:49:01+00:00,304.438,0.56,12.65,47.84626,-54.09684
2020-03-31 01:59:01+00:00,306.2063,0.6,12.65,47.84626,-54.09684
2020-03-31 02:09:01+00:00,307.8397,0.5,12.65,47.84626,-54.09684
2020-03-31 02:19:01+00:00,315.0714,0.52,12.65,47.84626,-54.09684
2020-03-31 02:29:01+00:00,318.5997,0.5,12.65,47.84626,-54.09684
2020-03-31 02:39:01+00:00,318.9763,0.5,12.65,47.84626,-54.09684
2020-03-31 02:49:01+00:00,317.7713,0.45,12.65,47.84626,-54.09684
2020-03-31 02:59:01+00:00,321.3981,0.4,12.65,47.84626,-54.09684
2020-03-31 03:09:01+00:00,325.2063,0.35,12.65,47.84626,-54.09684
2020-03-31 03:19:01+00:00,327.288,0.35,12.65,47.84626,-54.09684
2020-03-31 03:29:01+00:00,328.3646,0.32,12.65,47.84626,-54.09684
2020-03-31 03:39:01+00:00,336.5696,0.37,12.65,47.84626,-54.09684
2020-03-31 03:49:01+00:00,340.9696,0.4,12.65,47.84626,-54.09684
2020-03-31 03:59:01+00:00,339.1796,0.5,12.65,47.84626,-54.09684
2020-03-31 04:09:01+00:00,339.8896,0.5,12.65,47.84626,-54.09684
2020-03-31 04:19:01+00:00,342.8996,0.4,12.65,47.84626,-54.09684
2020-03-31 04:29:01+00:00,338.05800000000005,0.4,12.65,47.84626,-54.09684
2020-03-31 04:39:01+00:00,333.423,0.39,12.65,47.84626,-54.09684
2020-03-31 04:49:01+00:00,334.1196,0.36,12.65,47.84626,-54.09684
2020-03-31 04:59:01+00:00,335.548,0.35,12.65,47.84626,-54.09684
2020-03-31 05:09:01+00:00,333.1997,0.38,12.65,47.84626,-54.09684
2020-03-31 05:19:01+00:00,330.5779,0.4,12.57,47.84626,-54.09684
2020-03-31 05:29:01+00:00,329.3096,0.4,12.57,47.84626,-54.09684
2020-03-31 05:39:01+00:00,326.8914,0.4,12.57,47.84626,-54.09684
2020-03-31 05:49:01+00:00,320.0947,0.37,12.57,47.84626,-54.09684
2020-03-31 05:59:01+00:00,317.0746,0.37,12.57,47.84626,-54.09684
2020-03-31 06:09:01+00:00,312.8363,0.39,12.57,47.84626,-54.09684
2020-03-31 06:19:01+00:00,304.1797,0.4,12.57,47.84626,-54.09684
2020-03-31 06:29:01+00:00,298.6247,0.4,12.57,47.84626,-54.09684
2020-03-31 06:39:01+00:00,299.9414,0.4,12.57,47.84626,-54.09684
2020-03-31 06:49:01+00:00,297.8831,0.42,12.57,47.84626,-54.09684
2020-03-31 06:59:01+00:00,286.83799999999997,0.5,12.57,47.84626,-54.09684
2020-03-31 07:09:01+00:00,280.8698,0.44,12.57,47.84626,-54.09684
2020-03-31 07:19:01+00:00,278.1014,0.4,12.57,47.84626,-54.09684
2020-03-31 07:29:01+00:00,269.0147,0.31,12.57,47.84626,-54.09684
2020-03-31 07:39:01+00:00,256.3948,0.35,12.57,47.84626,-54.09684
2020-03-31 07:49:01+00:00,249.7181,0.39,12.57,47.84626,-54.09684
2020-03-31 07:59:01+00:00,245.2181,0.4,12.57,47.84626,-54.09684
2020-03-31 08:09:01+00:00,237.4198,0.4,12.57,47.84626,-54.09684
2020-03-31 08:19:01+00:00,230.4581,0.4,12.57,47.84626,-54.09684
2020-03-31 08:29:01+00:00,225.9381,0.4,12.57,47.84626,-54.09684
2020-03-31 08:39:01+00:00,219.4614,0.4,12.57,47.84626,-54.09684
2020-03-31 08:49:01+00:00,214.9915,0.31,12.57,47.84626,-54.09684
2020-03-31 08:59:01+00:00,213.4965,0.3,12.57,47.84626,-54.09684
2020-03-31 09:09:01+00:00,211.2031,0.3,12.57,47.84626,-54.09684
2020-03-31 09:19:01+00:00,207.0231,0.3,12.57,47.84626,-54.09684
2020-03-31 09:29:01+00:00,202.2114,0.3,12.57,47.84626,-54.09684
2020-03-31 09:39:01+00:00,201.5332,0.3,12.57,47.84626,-54.09684
2020-03-31 09:49:01+00:00,203.3415,0.3,12.57,47.84626,-54.09684
2020-03-31 09:59:01+00:00,206.4898,0.3,12.57,47.84626,-54.09684
2020-03-31 10:09:01+00:00,213.0913,0.3,12.57,47.84626,-54.09684
2020-03-31 10:19:01+00:00,217.3598,0.3,12.57,47.84626,-54.09684
2020-03-31 10:29:01+00:00,219.8381,0.3,12.57,47.84626,-54.09684
2020-03-31 10:39:01+00:00,223.1698,0.3,12.57,47.84626,-54.09684
2020-03-31 10:49:01+00:00,226.4582,0.3,12.57,47.84626,-54.09684
2020-03-31 10:59:01+00:00,228.3715,0.3,12.57,47.84626,-54.09684
2020-03-31 11:09:01+00:00,230.6914,0.3,12.57,47.84626,-54.09684
2020-03-31 11:19:01+00:00,235.0514,0.3,12.89,47.84626,-54.09684
2020-03-31 11:29:01+00:00,237.7764,0.31,12.89,47.84626,-54.09684
2020-03-31 11:39:01+00:00,238.9732,0.31,12.89,47.84626,-54.09684
2020-03-31 11:49:01+00:00,241.9331,0.35,12.89,47.84626,-54.09684
2020-03-31 11:59:01+00:00,246.9898,0.38,12.89,47.84626,-54.09684
2020-03-31 12:09:01+00:00,248.9932,0.38,12.89,47.84626,-54.09684
2020-03-31 12:19:01+00:00,250.4348,0.33,14.56,47.84626,-54.09684
2020-03-31 12:29:01+00:00,255.6447,0.3,14.56,47.84626,-54.09684
2020-03-31 12:39:01+00:00,259.3964,0.3,14.56,47.84626,-54.09684
2020-03-31 12:49:01+00:00,258.1165,0.3,14.56,47.84626,-54.09684
2020-03-31 12:59:01+00:00,259.8164,0.3,14.56,47.84626,-54.09684
2020-03-31 13:09:01+00:00,264.8597,0.3,14.56,47.84626,-54.09684
2020-03-31 13:19:01+00:00,267.623,0.34,14.72,47.84626,-54.09684
2020-03-31 13:29:01+00:00,269.7281,0.35,14.72,47.84626,-54.09684
2020-03-31 13:39:01+00:00,273.8397,0.37,14.72,47.84626,-54.09684
2020-03-31 13:49:01+00:00,279.2697,0.5,14.72,47.84626,-54.09684
2020-03-31 13:59:01+00:00,281.0547,0.4,14.72,47.84626,-54.09684
2020-03-31 14:09:01+00:00,285.0514,0.44,14.72,47.84626,-54.09684
2020-03-31 14:19:01+00:00,288.8881,0.5,14.72,47.84626,-54.09684
2020-03-31 14:29:01+00:00,289.3347,0.6,14.72,47.84626,-54.09684
2020-03-31 14:39:01+00:00,288.8214,0.66,14.72,47.84626,-54.09684
2020-03-31 14:49:01+00:00,295.8464,0.7,14.72,47.84626,-54.09684
2020-03-31 14:59:01+00:00,303.568,0.63,14.72,47.84626,-54.09684
2020-03-31 15:09:01+00:00,302.4997,0.4,14.72,47.84626,-54.09684
2020-03-31 15:19:01+00:00,301.0598,0.3,14.64,47.84626,-54.09684
2020-03-31 15:29:01+00:00,306.8747,0.3,14.64,47.84626,-54.09684
2020-03-31 15:39:01+00:00,311.2231,0.3,14.64,47.84626,-54.09684
2020-03-31 15:49:01+00:00,310.533,0.3,14.64,47.84626,-54.09684
2020-03-31 15:59:01+00:00,310.8531,0.3,14.64,47.84626,-54.09684
2020-03-31 16:09:01+00:00,312.563,0.3,14.64,47.84626,-54.09684
2020-03-31 16:19:01+00:00,312.4614,0.3,14.48,47.84626,-54.09684
2020-03-31 16:29:01+00:00,309.5314,0.3,14.48,47.84626,-54.09684
2020-03-31 16:39:01+00:00,310.068,0.3,14.48,47.84626,-54.09684
2020-03-31 16:49:01+00:00,313.7263,0.3,14.48,47.84626,-54.09684
2020-03-31 16:59:01+00:00,310.7247,0.36,14.48,47.84626,-54.09684
2020-03-31 17:09:01+00:00,305.663,0.4,14.48,47.84626,-54.09684
2020-03-31 17:19:01+00:00,307.4579,0.4,14.4,47.84626,-54.09684
2020-03-31 17:29:01+00:00,309.8781,0.41,14.4,47.84626,-54.09684
2020-03-31 17:39:01+00:00,302.918,0.48,14.4,47.84626,-54.09684
2020-03-31 17:49:01+00:00,295.3879,0.5,14.4,47.84626,-54.09684
2020-03-31 17:59:01+00:00,294.7546,0.5,14.4,47.84626,-54.09684
2020-03-31 18:09:01+00:00,295.0597,0.55,14.4,47.84626,-54.09684
2020-03-31 18:19:01+00:00,287.9915,0.6,14.08,47.84626,-54.09684
2020-03-31 18:29:01+00:00,283.2097,0.58,14.08,47.84626,-54.09684
2020-03-31 18:39:01+00:00,276.6314,0.42,14.08,47.84626,-54.09684
2020-03-31 18:49:01+00:00,272.0614,1.3,14.08,47.84626,-54.09684
2020-03-31 18:59:01+00:00,267.6614,1.3,14.08,47.84626,-54.09684
2020-03-31 19:09:01+00:00,265.5831,1.22,14.08,47.84626,-54.09684
2020-03-31 19:19:01+00:00,259.4098,1.43,14.0,47.84626,-54.09684
2020-03-31 19:29:01+00:00,253.9764,1.51,14.0,47.84626,-54.09684
2020-03-31 19:39:01+00:00,249.118,1.24,14.0,47.84626,-54.09684
2020-03-31 19:49:01+00:00,246.2515,0.98,14.0,47.84626,-54.09684
2020-03-31 19:59:01+00:00,243.0614,1.49,14.0,47.84626,-54.09684
2020-03-31 20:09:01+00:00,237.4665,1.23,14.0,47.84626,-54.09684
2020-03-31 20:19:01+00:00,231.0264,1.0,13.84,47.84626,-54.09684
2020-03-31 20:29:01+00:00,227.2647,0.69,13.84,47.84626,-54.09684
2020-03-31 20:39:01+00:00,226.5964,0.5,13.84,47.84626,-54.09684
2020-03-31 20:49:01+00:00,223.0431,0.62,13.84,47.84626,-54.09684
2020-03-31 20:59:01+00:00,216.3481,0.99,13.84,47.84626,-54.09684
2020-03-31 21:09:01+00:00,214.8248,0.7,13.84,47.84626,-54.09684
2020-03-31 21:19:01+00:00,219.8899,0.51,13.44,47.84626,-54.09684
2020-03-31 21:29:01+00:00,216.2414,1.12,13.44,47.84626,-54.09684
2020-03-31 21:39:01+00:00,211.4981,1.69,13.44,47.84626,-54.09684
2020-03-31 21:49:01+00:00,214.7764,1.1,13.44,47.84626,-54.09684
2020-03-31 21:59:01+00:00,219.6848,1.19,13.44,47.84626,-54.09684
2020-03-31 22:09:01+00:00,220.3315,1.65,13.44,47.84626,-54.09684
2020-03-31 22:19:01+00:00,219.1014,1.2,13.13,47.84626,-54.09684
2020-03-31 22:29:01+00:00,222.2448,1.17,13.13,47.84626,-54.09684
2020-03-31 22:39:01+00:00,227.6081,1.15,13.13,47.84626,-54.09684
2020-03-31 22:49:01+00:00,229.7564,1.55,13.13,47.84626,-54.09684
2020-03-31 22:59:01+00:00,233.4432,1.57,13.13,47.84626,-54.09684
2020-03-31 23:09:01+00:00,236.9714,0.76,13.13,47.84626,-54.09684
2020-03-31 23:19:01+00:00,241.8614,0.58,12.81,47.84626,-54.09684
2020-03-31 23:29:01+00:00,245.0748,0.79,12.81,47.84626,-54.09684
2020-03-31 23:39:01+00:00,243.8848,1.15,12.81,47.84626,-54.09684
2020-03-31 23:49:01+00:00,243.3414,1.0,12.81,47.84626,-54.09684
2020-03-31 23:59:01+00:00,248.2864,0.8,12.81,47.84626,-54.09684
